When you browse on this site, cookies collect data to enhance your experience and personalize the content and advertising you see.
Visit our Privacy Policy to learn more. By continuing to use the site, you agree to this use of cookies and data.
  • In Portugal
  • List of Countries
  • For 7 days
  • Water Temperature
  • Satellite Maps
  • Weather Map
  • Weather Widgets
  • user-avatar
    Login

    Hourly Weather Balchik

    Today, 20 January, Sunday

    Time Temperature Precipitation Wind Pressure Humidity
    00:00 0°C° 0.4 mm 4 mps 743 mmHg 94%
    01:00 0°C° 0.4 mm 4 mps 743 mmHg 94%
    02:00 0°C° 0 mm 4 mps 743 mmHg 94%
    03:00 0°C° 0.3 mm 4 mps 742 mmHg 95%
    04:00 +1°C° 0.3 mm 4 mps 742 mmHg 95%
    05:00 +1°C° 0.3 mm 4 mps 742 mmHg 96%
    06:00 +1°C° 0.2 mm 4 mps 742 mmHg 96%
    07:00 +1°C° 0.2 mm 4 mps 741 mmHg 97%
    08:00 +1°C° 0 mm 4 mps 741 mmHg 97%
    09:00 +3°C° 0 mm 4 mps 741 mmHg 97%
    10:00 +3°C° 0 mm 4 mps 741 mmHg 97%
    11:00 +4°C° 0 mm 4 mps 741 mmHg 97%
    12:00 +4°C° 0 mm 4 mps 740 mmHg 97%
    13:00 +5°C° 0 mm 4 mps 740 mmHg 96%
    14:00 +5°C° 0 mm 4 mps 739 mmHg 96%
    15:00 +5°C° 0 mm 4 mps 739 mmHg 96%
    16:00 +5°C° 0 mm 4 mps 738 mmHg 97%
    17:00 +5°C° 0 mm 3 mps 738 mmHg 97%
    18:00 +5°C° 0.1 mm 3 mps 738 mmHg 97%
    19:00 +5°C° 0.1 mm 3 mps 737 mmHg 97%
    20:00 +5°C° 0.1 mm 3 mps 737 mmHg 97%
    21:00 +5°C° 0.2 mm 3 mps 737 mmHg 97%
    22:00 +5°C° 0.2 mm 3 mps 737 mmHg 97%
    23:00 +5°C° 0.2 mm 3 mps 738 mmHg 96%

    Tomorrow, 21 January, Monday

    Time Temperature Precipitation Wind Pressure Humidity
    00:00 +4°C° 0 mm 3 mps 738 mmHg 96%
    01:00 +4°C° 0 mm 4 mps 738 mmHg 95%
    02:00 +3°C° 0 mm 4 mps 738 mmHg 95%
    03:00 +1°C° 0 mm 4 mps 738 mmHg 94%
    04:00 0°C° 0 mm 5 mps 738 mmHg 93%
    05:00 0°C° 0 mm 5 mps 738 mmHg 92%
    06:00 0°C° 0 mm 5 mps 738 mmHg 92%
    07:00 -1°C° 0 mm 5 mps 739 mmHg 91%
    08:00 -1°C° 0 mm 5 mps 739 mmHg 91%
    09:00 -1°C° 0 mm 5 mps 740 mmHg 89%
    10:00 0°C° 0 mm 5 mps 740 mmHg 86%
    11:00 +1°C° 0 mm 5 mps 741 mmHg 83%
    12:00 +1°C° 0 mm 5 mps 741 mmHg 81%
    13:00 +1°C° 0 mm 5 mps 741 mmHg 78%
    14:00 +1°C° 0 mm 5 mps 741 mmHg 75%
    15:00 +1°C° 0 mm 4 mps 741 mmHg 77%
    16:00 +1°C° 0 mm 3 mps 742 mmHg 79%
    17:00 0°C° 0 mm 3 mps 742 mmHg 81%
    18:00 -1°C° 0 mm 3 mps 742 mmHg 83%
    19:00 -1°C° 0 mm 3 mps 743 mmHg 85%
    20:00 -2°C° 0 mm 2 mps 743 mmHg 87%
    21:00 -2°C° 0 mm 2 mps 743 mmHg 87%
    22:00 -2°C° 0 mm 2 mps 743 mmHg 86%
    23:00 -3°C° 0 mm 2 mps 743 mmHg 86%

    Day after tomorrow, 22 January, Tuesday

    Time Temperature Precipitation Wind Pressure Humidity
    00:00 -3°C° 0 mm 2 mps 743 mmHg 86%
    01:00 -3°C° 0 mm 2 mps 743 mmHg 86%
    02:00 -3°C° 0 mm 2 mps 743 mmHg 86%
    03:00 -3°C° 0 mm 2 mps 743 mmHg 88%
    04:00 -3°C° 0 mm 2 mps 743 mmHg 90%
    05:00 -2°C° 0 mm 2 mps 742 mmHg 92%
    06:00 -2°C° 0 mm 2 mps 742 mmHg 91%
    07:00 -2°C° 0 mm 2 mps 742 mmHg 91%
    08:00 -1°C° 0 mm 3 mps 742 mmHg 91%
    09:00 0°C° 0 mm 3 mps 742 mmHg 87%
    10:00 -1°C° 0 mm 4 mps 742 mmHg 84%
    11:00 0°C° 0 mm 4 mps 742 mmHg 80%
    12:00 +1°C° 0 mm 4 mps 742 mmHg 80%
    13:00 +1°C° 0 mm 4 mps 741 mmHg 80%
    14:00 +1°C° 0 mm 4 mps 740 mmHg 80%
    15:00 +1°C° 0 mm 4 mps 740 mmHg 84%
    16:00 0°C° 0 mm 4 mps 740 mmHg 87%
    17:00 -1°C° 0 mm 4 mps 739 mmHg 91%
    18:00 -1°C° 0 mm 4 mps 739 mmHg 92%
    19:00 -1°C° 0 mm 5 mps 739 mmHg 92%
    20:00 -1°C° 0 mm 5 mps 738 mmHg 93%
    21:00 0°C° 0.1 mm 5 mps 738 mmHg 93%
    22:00 0°C° 0.1 mm 5 mps 738 mmHg 93%
    23:00 0°C° 0.1 mm 5 mps 737 mmHg 93%

    23 January, Wednesday

    Time Temperature Precipitation Wind Pressure Humidity
    00:00 +1°C° 0 mm 5 mps 737 mmHg 94%
    01:00 +1°C° 0 mm 5 mps 736 mmHg 94%
    02:00 +1°C° 0 mm 5 mps 736 mmHg 95%
    03:00 +2°C° 0 mm 6 mps 735 mmHg 95%
    04:00 +2°C° 0 mm 6 mps 734 mmHg 95%
    05:00 +2°C° 0 mm 6 mps 734 mmHg 96%
    06:00 +2°C° 1.2 mm 6 mps 734 mmHg 96%
    07:00 +2°C° 1.2 mm 7 mps 733 mmHg 96%
    08:00 +3°C° 1.2 mm 7 mps 733 mmHg 96%
    09:00 +3°C° 0.9 mm 7 mps 733 mmHg 94%
    10:00 +4°C° 0.9 mm 7 mps 733 mmHg 92%
    11:00 +5°C° 0.9 mm 7 mps 732 mmHg 90%
    12:00 +6°C° 0.1 mm 7 mps 732 mmHg 87%
    13:00 +6°C° 0.1 mm 7 mps 731 mmHg 85%
    14:00 +8°C° 0.1 mm 7 mps 731 mmHg 82%
    15:00 +8°C° 0 mm 7 mps 731 mmHg 83%
    16:00 +8°C° 0 mm 6 mps 731 mmHg 84%
    17:00 +8°C° 0 mm 6 mps 730 mmHg 86%
    18:00 +8°C° 0 mm 6 mps 731 mmHg 85%
    19:00 +7°C° 0 mm 6 mps 731 mmHg 85%
    20:00 +7°C° 0 mm 6 mps 731 mmHg 85%
    21:00 +7°C° 0 mm 6 mps 731 mmHg 87%
    22:00 +7°C° 0 mm 6 mps 732 mmHg 89%
    23:00 +6°C° 0 mm 5 mps 732 mmHg 90%

    24 January, Thursday

    Time Temperature Precipitation Wind Pressure Humidity
    00:00 +6°C° 0 mm 5 mps 732 mmHg 92%
    01:00 +6°C° 0 mm 5 mps 732 mmHg 93%
    02:00 +6°C° 0 mm 5 mps 732 mmHg 94%
    03:00 +6°C° 0 mm 5 mps 731 mmHg 94%
    04:00 +6°C° 0 mm 4 mps 731 mmHg 94%
    05:00 +5°C° 0 mm 4 mps 731 mmHg 94%
    06:00 +6°C° 0 mm 4 mps 731 mmHg 95%
    07:00 +6°C° 0 mm 4 mps 731 mmHg 96%
    08:00 +6°C° 0 mm 5 mps 732 mmHg 97%
    09:00 +7°C° 0 mm 5 mps 732 mmHg 94%
    10:00 +7°C° 0 mm 6 mps 731 mmHg 91%
    11:00 +8°C° 0 mm 6 mps 731 mmHg 89%
    12:00 +8°C° 0 mm 6 mps 731 mmHg 85%
    13:00 +9°C° 0 mm 6 mps 730 mmHg 81%
    14:00 +9°C° 0 mm 6 mps 730 mmHg 77%
    15:00 +8°C° 0 mm 5 mps 729 mmHg 81%
    16:00 +7°C° 0 mm 5 mps 729 mmHg 85%
    17:00 +6°C° 0 mm 5 mps 728 mmHg 89%
    18:00 +6°C° 0 mm 5 mps 728 mmHg 90%
    19:00 +5°C° 0 mm 4 mps 728 mmHg 90%
    20:00 +5°C° 0 mm 4 mps 728 mmHg 91%
    21:00 +4°C° 0 mm 4 mps 728 mmHg 91%
    22:00 +4°C° 0 mm 4 mps 727 mmHg 90%
    23:00 +4°C° 0 mm 4 mps 727 mmHg 90%

    25 January, Friday

    Time Temperature Precipitation Wind Pressure Humidity
    00:00 +4°C° 0 mm 4 mps 727 mmHg 92%
    01:00 +3°C° 0 mm 4 mps 727 mmHg 94%
    02:00 +3°C° 0 mm 3 mps 726 mmHg 96%
    03:00 +3°C° 0 mm 3 mps 726 mmHg 96%
    04:00 +3°C° 0 mm 3 mps 726 mmHg 96%
    05:00 +3°C° 0 mm 3 mps 726 mmHg 96%
    06:00 +4°C° 0.9 mm 2 mps 726 mmHg 97%
    07:00 +5°C° 0.9 mm 2 mps 726 mmHg 97%
    08:00 +5°C° 0.9 mm 2 mps 726 mmHg 98%
    09:00 +6°C° 0.8 mm 2 mps 727 mmHg 97%
    10:00 +6°C° 0.8 mm 2 mps 727 mmHg 97%
    11:00 +7°C° 0.8 mm 2 mps 727 mmHg 96%
    12:00 +7°C° 0.4 mm 2 mps 727 mmHg 93%
    13:00 +8°C° 0.4 mm 2 mps 727 mmHg 91%
    14:00 +8°C° 0.4 mm 2 mps 727 mmHg 88%
    15:00 +8°C° 0.1 mm 2 mps 727 mmHg 91%
    16:00 +7°C° 0.1 mm 2 mps 727 mmHg 93%
    17:00 +7°C° 0.1 mm 2 mps 727 mmHg 95%
    18:00 +5°C° 0.1 mm 3 mps 727 mmHg 95%
    19:00 +5°C° 0.1 mm 3 mps 727 mmHg 96%
    20:00 +4°C° 0.1 mm 3 mps 728 mmHg 97%
    21:00 +4°C° 0 mm 3 mps 728 mmHg 96%
    22:00 +4°C° 0 mm 4 mps 728 mmHg 96%
    23:00 +3°C° 0 mm 4 mps 729 mmHg 96%
    Show more